TimeMST,TemperatureF,Dew PointF,Humidity,Sea Level PressureIn,VisibilityMPH,Wind Direction,Wind SpeedMPH,Gust SpeedMPH,PrecipitationIn,Events,Conditions,WindDirDegrees,DateUTC
12:53 AM,33.1,26.1,75,30.23,10.0,SW,3.5,-,N/A,,Clear,220,2013-01-31 07:53:00
1:53 AM,30.9,26.1,82,30.24,10.0,SSE,4.6,-,N/A,,Clear,160,2013-01-31 08:53:00
2:53 AM,30.0,25.0,82,30.24,10.0,South,4.6,-,N/A,,Clear,180,2013-01-31 09:53:00
3:53 AM,30.0,25.0,82,30.22,10.0,Calm,Calm,-,N/A,,Clear,0,2013-01-31 10:53:00
4:53 AM,28.0,24.1,85,30.22,10.0,Calm,Calm,-,N/A,,Clear,0,2013-01-31 11:53:00
5:53 AM,28.0,25.0,88,30.23,10.0,South,4.6,-,N/A,,Clear,180,2013-01-31 12:53:00
6:53 AM,28.0,24.1,85,30.25,10.0,South,3.5,-,N/A,,Clear,190,2013-01-31 13:53:00
7:53 AM,27.0,24.1,89,30.27,10.0,SSW,4.6,-,N/A,,Clear,200,2013-01-31 14:53:00
8:53 AM,34.0,28.0,79,30.24,10.0,SSW,3.5,-,N/A,,Clear,200,2013-01-31 15:53:00
9:53 AM,37.9,28.9,70,30.25,10.0,North,5.8,-,N/A,,Clear,350,2013-01-31 16:53:00
10:53 AM,42.1,30.0,62,30.25,10.0,Calm,Calm,-,N/A,,Clear,0,2013-01-31 17:53:00
11:53 AM,48.0,30.0,50,30.22,10.0,Calm,Calm,-,N/A,,Clear,0,2013-01-31 18:53:00
12:53 PM,52.0,26.1,37,30.21,10.0,Calm,Calm,-,N/A,,Clear,0,2013-01-31 19:53:00
1:53 PM,54.0,26.1,34,30.18,10.0,NE,4.6,-,N/A,,Clear,50,2013-01-31 20:53:00
2:53 PM,55.9,25.0,30,30.17,10.0,NE,8.1,-,N/A,,Clear,40,2013-01-31 21:53:00
3:53 PM,55.9,21.9,27,30.16,10.0,NE,4.6,-,N/A,,Clear,40,2013-01-31 22:53:00
5:53 PM,50.0,27.0,41,30.15,10.0,NNW,3.5,-,N/A,,Clear,340,2013-02-01 00:53:00
6:53 PM,43.0,26.1,51,30.19,10.0,SSW,5.8,-,N/A,,Clear,200,2013-02-01 01:53:00
7:53 PM,39.9,26.1,58,30.21,10.0,South,9.2,-,N/A,,Clear,190,2013-02-01 02:53:00
8:53 PM,37.9,25.0,60,30.21,10.0,South,8.1,-,N/A,,Clear,190,2013-02-01 03:53:00
9:53 PM,35.1,25.0,67,30.20,10.0,SSW,4.6,-,N/A,,Clear,200,2013-02-01 04:53:00
10:53 PM,34.0,25.0,70,30.20,10.0,SW,3.5,-,N/A,,Clear,220,2013-02-01 05:53:00
11:53 PM,33.1,24.1,70,30.18,10.0,South,9.2,-,N/A,,Clear,190,2013-02-01 06:53:00